Location: Burbank
(38.7788°N, 114.0429°W)
Time: 22:39:14
(UTC+00:00)

Transit 2A - Pass Details

Date: 10 May 2026
Orbit: 595 x 949 km, 66.7° (Epoch: 5 June)

Event Time Altitude Azimuth Distance (km) Brightness Sun altitude
Rises 23:15:25 0° 182° (S) 3,601 9.6 37.6°
Reaches altitude 10° 23:18:11 10° 174° (S) 2,653 8.9 37.0°
Maximum altitude 23:23:46 36° 110° (ESE) 1,428 7.3 36.0°
Drops below altitude 10° 23:29:09 10° 46° (NE) 2,549 8.4 34.9°
Sets 23:31:44 0° 38° (NE) 3,444 9.0 34.4°
